Regional Weather Roundup
Issued by NWS

Home | Current Version | Previous Version | Graphics & Text | Print | Product List | Glossary On
Versions: 1 2 3 4 5 6 7 8 9 10 11 12 13 14 15 16 17 18 19 20 21 22 23 24 25 26 27 28 29 30 31 32 33 34 35 36 37 38 39 40 41 42 43 44 45 46 47 48 49 50
000
ASUS43 KLOT 020210
RWRIL

ILLINOIS REGIONAL WEATHER ROUNDUP
NATIONAL WEATHER SERVICE CHICAGO/ROMEOVILLE IL
800 PM CST SUN MAR 01 2015

NOTE: "FAIR" INDICATES FEW OR NO CLOUDS BELOW 12,000 FEET WITH NO
SIGNIFICANT WEATHER AND/OR OBSTRUCTIONS TO VISIBILITY.

* THESE STATIONS ARE NOT UNDER NWS QUALITY CONTROL. THEY ALSO MAY NOT
  REPORT WEATHER SUCH AS PRECIPITATION OR FOG.

ILZ001-002-007-009-015-016-024-020300-
NORTHWEST ILLINOIS

CITY           SKY/WX    TMP DP  RH WIND       PRES   REMARKS
MOLINE         PTCLDY    24  14  65 W10       30.39R WCI  14
STERLING*      CLEAR     19  16  86 W13       30.35R WCI   7
SAVANNA*       CLEAR     22  11  63 W9        30.36R WCI  12
$$

ILZ003-004-008-010-011-017-018-020300-
NORTH CENTRAL ILLINOIS

CITY           SKY/WX    TMP DP  RH WIND       PRES   REMARKS
ROCKFORD       CLEAR     21  13  71 W8        30.32R WCI  11
FREEPORT*      CLEAR     20  12  71 W14       30.33R WCI   7
ROCHELLE*      CLEAR     13  10  89 W10       30.32R WCI   0
DE KALB*       CLEAR     19  14  81 W15       30.29S WCI   4
PERU*          PTCLDY    17  13  84 W8        30.36R WCI   6
$$

ILZ005-006-012>014-019>023-020300-
NORTHEAST ILLINOIS

CITY           SKY/WX    TMP DP  RH WIND       PRES   REMARKS
CHICAGO-OHARE  CLEAR     20  13  74 W8        30.28S WCI  10
CHICAGO-MIDWAY CLEAR     22  14  71 W9        30.30S WCI  12
AURORA         CLEAR     18  11  74 SW10      30.31S WCI   6
LANSING*       CLEAR     19  14  79 W8        30.32R WCI   9
JOLIET*        PTCLDY    18  12  77 W5        30.33S WCI  11
WAUKEGAN       CLEAR     20  15  81 SW7       30.25S WCI  11
DUPAGE AIRPORT CLEAR     18  12  77 SW12      30.28F WCI   5
KANKAKEE*      PTCLDY    12  10  92 W6        30.35R WCI   2
WHEELING       CLEAR     21  14  74 W8        30.30R WCI  11
MORRIS*        PTCLDY    15  11  85 W8        30.33S WCI   3
ROMEOVILLE*    PTCLDY    18  13  80 W10       30.31F WCI   6
NORTHERLY ISL    N/A     22  15  75 W10         N/A  WCI  11
$$

LMZ740>746-020300-
SOUTHERN LAKE MICHIGAN

STATION/POSITION SKY/WX   TEMP    WIND        PRES    VSBY  WAVE
                          AIR SEA DIR/SP/G                  HT/PER
                          (F)     (DEG/KT/KT) (MB)    (MI)  (FT/S)
WAUKEGAN HARBOR            22     240/ 11/ 18   N/A
HARRISON CRIB              23     250/ 13/ 19   N/A
BURNHAM HARBOR             22     270/  5/ 15   N/A
CALUMET HARBOR             21     230/  6/ 11 1024.8F
MICHIGAN CITY              21     210/ 13/ 16   N/A
$$

ILZ025>027-034>036-040-047-049-050-058-095>099-020300-
WEST-CENTRAL ILLINOIS

CITY           SKY/WX    TMP DP  RH WIND       PRES   REMARKS
QUINCY         MOCLDY    24  17  74 W3        30.41R
GALESBURG*     PTCLDY    20  16  83 W6        30.38S WCI  13
MACOMB*        MOCLDY    17  14  87 SW5       30.43R WCI  10
JACKSONVILLE*  MOCLDY    21  16  82 W6        30.41R WCI  13
PITTSFIELD*    MOCLDY    24  19  79 CALM      30.43R
$$

ILZ028>032-037-038-041>044-048-051>054-059>061-020300-
CENTRAL ILLINOIS

CITY           SKY/WX    TMP DP  RH WIND       PRES   REMARKS
PONTIAC        PTCLDY    15  12  88 W8        30.37R WCI   4
BLOOMINGTON    MOCLDY    22  17  81 W9        30.37R WCI  12
DECATUR        MOCLDY    24  19  81 W9        30.38R WCI  14
PEORIA         PTCLDY    21  14  74 W6        30.39R WCI  13
LACON*         PTCLDY    20  14  76 W5        30.38R WCI  14
LINCOLN*       MOCLDY    23  17  77 NW5       30.42R WCI  17
SPRINGFIELD    MOCLDY    24  17  74 NW7       30.41R WCI  16
TAYLORVILLE    MOCLDY    23  19  86 W3        30.40R
$$

ILZ033-039-045-046-055>057-062-063-020300-
EAST-CENTRAL ILLINOIS

CITY           SKY/WX    TMP DP  RH WIND       PRES   REMARKS
CHAMPAIGN      MOCLDY    17  14  88 W10       30.36R WCI   5
DANVILLE*      CLOUDY    21  18  86 W6        30.33R WCI  14
RANTOUL*       MOCLDY    21  18  88 W7        30.35S WCI  12
MATTOON        MOCLDY    24  19  81 NW9       30.37R WCI  14
PARIS*         PTCLDY    22  20  93 W5        30.37R WCI  15
$$

ILZ079-100>102-020300-
SOUTHWEST ILLINOIS

CITY           SKY/WX    TMP DP  RH WIND       PRES   REMARKS
BELLEVILLE     FAIR      28  26  92 NW3       30.42R
CAHOKIA*       MOCLDY    29  23  78 NW5       30.43R WCI  24
SPARTA*        CLOUDY    30  25  84 NW3       30.43R
$$

ILZ064>066-069>071-074>076-080>082-084>086-088>090-092>094-020300-
SOUTH-CENTRAL ILLINOIS

CITY           SKY/WX    TMP DP  RH WIND       PRES   REMARKS
CARBONDALE     CLOUDY    32  27  81 NW7       30.41R WCI  26
CAIRO*         CLOUDY    37  31  78 NW7       30.40R WCI  31
EFFINGHAM*     CLOUDY    27  20  75 W6        30.41R WCI  21
MARION         CLOUDY    32  28  86 NW6       30.42R WCI  26
MT. VERNON     MOCLDY    28  23  80 CALM      30.41R
CENTRALIA*     MOCLDY    27  22  82 NW6       30.41R WCI  21
SALEM*         PTCLDY    28  24  82 NW5       30.41R WCI  23
METROPOLIS*    CLOUDY    35  32  87 NW6       30.38R WCI  30
$$

ILZ067-068-072-073-078-083-087-091-020300-
SOUTHEAST ILLINOIS

CITY           SKY/WX    TMP DP  RH WIND       PRES   REMARKS
LAWRENCEVILLE  CLOUDY    31  26  82 NW9       30.38R WCI  23
FLORA*         CLOUDY    28  24  86 NW8       30.40R WCI  20
FAIRFIELD*     CLEAR     30  26  85 W3        30.39R
HARRISBURG*    CLOUDY    32  29  89 NW9       30.41R WCI  24
ROBINSON*      CLOUDY    28  25  88 NW6       30.40R WCI  22
CARMI*         CLOUDY    33  32  94 NW8       30.38R WCI  27
$$

ABBREVIATIONS USED IN REMARKS
   TC - TEMPERATURE IN CELSIUS
  WCI - WIND CHILL INDEX
   HX - HEAT INDEX
  VSB - VISIBILITY
$$



USA.gov is the U.S. government's official web portal to all federal, state and local government web resources and services.